This demonstration page uses our WeatherBlox Daily Observations layout. Learn more.

Hourly Observations for March 27, 2015

Temp ( °F °C ) Dew Point ( °F °C ) Humidity (%) Winds ( mph kmh ) Pressure ( in mb ) Visibility ( mi km ) Precip ( " mm )
12:15 am 00:15 Mostly Cloudy 32 0.1 27 -2.7 82 82 NNE 16 26 30.3 1026 10 16.0934 0 0
12:35 am 00:35 Cloudy 32 0.1 28 -2.5 83 83 NE 15 24 30.3 1026 10 16.0934 0 0
12:55 am 00:55 Cloudy 33 0.3 28 -2.5 82 82 NE 13 20 30.3 1026 10 16.0934 0 0
1:15 am 01:15 Cloudy 33 0.5 28 -2.5 81 81 NE 12 19 30.3 1026 10 16.0934 0 0
1:35 am 01:35 Cloudy 33 0.5 28 -2.3 82 82 NE 12 19 30.3 1026 10 16.0934 0 0
1:55 am 01:55 Cloudy 33 0.6 28 -2.5 80 80 NNE 14 22 30.3 1026 10 16.0934 0 0
2:15 am 02:15 Cloudy 33 0.3 26 -3.2 78 78 NNE 13 20 30.33 1027 10 16.0934 0 0
2:35 am 02:35 Cloudy 32 0.1 25 -3.7 76 76 NE 8 13 30.33 1027 10 16.0934 0 0
2:55 am 02:55 Cloudy 32 0.1 25 -3.7 76 76 NE 10 17 30.33 1027 10 16.0934 0 0
3:15 am 03:15 Cloudy 32 0.1 26 -3.5 77 77 NNE 8 13 30.33 1027 10 16.0934 0 0
3:35 am 03:35 Cloudy 32 0.1 25 -3.8 75 75 NNE 7 11 30.33 1027 10 16.0934 0 0
3:55 am 03:55 Cloudy 32 0.1 24 -4.2 73 73 N 5 7 30.33 1027 10 16.0934 0 0
4:15 am 04:15 Cloudy 32 0 24 -4.2 74 74 N 3 6 30.33 1027 10 16.0934 0 0
4:35 am 04:35 Cloudy 32 0 25 -4.1 74 74 N 3 6 30.33 1027 10 16.0934 0 0
4:55 am 04:55 Partly Cloudy 32 -0.2 24 -4.2 75 75 NW 3 6 30.33 1027 10 16.0934 0 0
5:15 am 05:15 Clear 31 -0.5 24 -4.5 75 75 NW 3 6 30.33 1027 10 16.0934 0 0
5:35 am 05:35 Clear 31 -0.5 24 -4.5 75 75 NW 3 6 30.33 1027 10 16.0934 0 0
5:55 am 05:55 Clear 30 -1 24 -4.7 76 76 Calm 30.33 1027 10 16.0934 0 0
6:15 am 06:15 Clear 30 -1 24 -4.6 77 77 NW 3 6 30.33 1027 10 16.0934 0 0
6:35 am 06:35 Clear 30 -1 24 -4.7 76 76 Calm 30.33 1027 10 16.0934 0 0
6:55 am 06:55 Clear 29 -1.5 24 -4.6 80 80 N 3 6 30.33 1027 10 16.0934 0 0
7:15 am 07:15 Clear 30 -1.2 24 -4.6 78 78 Calm 30.33 1027 10 16.0934 0 0
7:35 am 07:35 Sunny 30 -1.2 24 -4.5 79 79 Calm 30.33 1027 10 16.0934 0 0
7:55 am 07:55 Sunny 30 -1.1 24 -4.5 78 78 Calm 30.33 1027 10 16.0934 0 0
8:15 am 08:15 Partly Cloudy 31 -0.4 24 -4.2 76 76 Calm 30.33 1027 10 16.0934 0 0
8:35 am 08:35 Cloudy 32 0 25 -4 75 75 Calm 30.33 1027 10 16.0934 0 0
8:55 am 08:55 Cloudy 33 0.5 24 -4.2 71 71 E 6 9 30.33 1027 10 16.0934 0 0
9:15 am 09:15 Cloudy 33 0.4 24 -4.2 72 72 E 7 11 30.33 1027 10 16.0934 0 0
9:35 am 09:35 Cloudy 33 0.3 25 -4 73 73 SE 5 7 30.33 1027 10 16.0934 0 0
9:55 am 09:55 Cloudy 33 0.5 25 -4 72 72 SE 5 7 30.33 1027 10 16.0934 0 0
10:15 am 10:15 Cloudy 33 0.8 24 -4.3 69 69 SE 5 7 30.33 1027 10 16.0934 0 0
10:35 am 10:35 Cloudy 34 1.1 24 -4.4 67 67 SE 5 7 30.33 1027 10 16.0934 0 0
10:55 am 10:55 Cloudy 34 1.2 23 -4.8 65 65 S 3 6 30.33 1027 10 16.0934 0 0
11:15 am 11:15 Cloudy 35 1.5 24 -4.6 64 64 S 5 7 30.3 1026 10 16.0934 0 0
11:35 am 11:35 Cloudy 35 1.9 24 -4.5 63 63 S 7 11 30.27 1025 10 16.0934 0 0
11:55 am 11:55 Cloudy 36 2.4 24 -4.6 60 60 S 8 13 30.27 1025 10 16.0934 0 0
12:15 pm 12:15 Cloudy 37 2.6 24 -4.3 61 61 SSW 10 17 30.27 1025 10 16.0934 0 0
12:35 pm 12:35 Cloudy 37 2.9 24 -4.5 59 59 S 6 9 30.24 1024 10 16.0934 0 0
12:55 pm 12:55 Cloudy 38 3.3 24 -4.4 57 57 S 9 15 30.24 1024 10 16.0934 0 0
1:15 pm 13:15 Cloudy 39 3.7 24 -4.3 56 56 S 12 19 30.24 1024 10 16.0934 0 0
1:35 pm 13:35 Cloudy 39 4.1 24 -4.2 55 55 SSW 9 15 30.18 1022 10 16.0934 0 0
1:55 pm 13:55 Cloudy 41 5 25 -4.1 52 52 S 12 19 30.18 1022 10 16.0934 0 0
2:15 pm 14:15 Cloudy 42 5.8 25 -4.1 49 49 SSW 13 20 30.18 1022 10 16.0934 0 0
2:35 pm 14:35 Cloudy 42 5.6 25 -3.7 52 52 SSW 14 22 30.18 1022 10 16.0934 0 0
2:55 pm 14:55 Mostly Cloudy 45 7.1 26 -3.1 49 49 S 18 30 30.12 1020 10 16.0934 0 0
3:15 pm 15:15 Partly Cloudy 47 8.1 27 -2.7 47 47 SW 17 28 30.12 1020 10 16.0934 0 0
3:35 pm 15:35 Partly Cloudy 48 9 28 -2.1 46 46 SSW 16 26 30.09 1019 10 16.0934 0 0
3:55 pm 15:55 Mostly Cloudy 48 9.1 29 -1.6 47 47 SSW 16 26 30.09 1019 10 16.0934 0 0
4:15 pm 16:15 Cloudy 50 9.8 31 -0.7 48 48 SSW 14 22 30.06 1018 10 16.0934 0 0
4:35 pm 16:35 Cloudy 51 10.5 32 -0.1 48 48 SSW 14 22 30.06 1018 10 16.0934 0 0
4:55 pm 16:55 Cloudy 51 10.5 32 -0.2 48 48 SSW 12 19 30.03 1017 10 16.0934 0 0
5:15 pm 17:15 Cloudy 51 10.8 32 0 48 48 SSW 14 22 30 1016 10 16.0934 0 0
5:35 pm 17:35 Cloudy 53 11.5 33 0.3 46 46 SW 9 15 30 1016 10 16.0934 0 0
5:55 pm 17:55 Cloudy 52 11.1 33 0.4 48 48 S 12 19 30 1016 10 16.0934 0 0
6:15 pm 18:15 Cloudy 51 10.8 33 0.4 49 49 S 14 22 30 1016 10 16.0934 0 0
6:35 pm 18:35 Cloudy 51 10.8 33 0.4 49 49 S 13 20 29.97 1015 10 16.0934 0 0
6:55 pm 18:55 Cloudy 51 10.8 33 0.5 49 49 S 10 17 29.97 1015 10 16.0934 0 0
7:15 pm 19:15 Mostly Cloudy 52 11 33 0.5 49 49 S 9 15 29.97 1015 10 16.0934 0 0
7:35 pm 19:35 Partly Cloudy 51 10.8 33 0.4 49 49 S 15 24 29.97 1015 10 16.0934 0 0
7:55 pm 19:55 Partly Cloudy 51 10.6 33 0.5 50 50 S 12 19 29.97 1015 10 16.0934 0 0
8:15 pm 20:15 Clear 50 10.2 33 0.3 51 51 S 5 7 29.97 1015 10 16.0934 0 0
8:35 pm 20:35 Clear 49 9.4 32 0.1 53 53 S 9 15 29.97 1015 10 16.0934 0 0
8:55 pm 20:55 Partly Cloudy 48 9.1 32 0.1 54 54 S 9 15 29.97 1015 10 16.0934 0 0
9:15 pm 21:15 Mostly Cloudy 48 9 32 0.1 54 54 S 13 20 29.97 1015 10 16.0934 0 0
9:35 pm 21:35 Mostly Cloudy 47 8.6 32 0 55 55 S 10 17 29.97 1015 10 16.0934 0 0
9:55 pm 21:55 Cloudy 47 8.5 32 0.1 56 56 S 10 17 29.97 1015 10 16.0934 0 0
10:15 pm 22:15 Mostly Cloudy 46 8 32 0 57 57 S 8 13 30 1016 10 16.0934 0 0
10:35 pm 22:35 Partly Cloudy 44 6.9 32 -0.2 61 61 SSE 8 13 30.03 1017 10 16.0934 0 0
10:55 pm 22:55 Clear 41 5.1 31 -0.6 67 67 SSE 8 13 30.03 1017 10 16.0934 0 0
11:15 pm 23:15 Clear 40 4.4 29 -1.6 65 65 SE 9 15 30.06 1018 10 16.0934 0 0
11:35 pm 23:35 Clear 37 2.8 28 -2.4 69 69 SE 9 15 30.03 1017 10 16.0934 0 0
11:55 pm 23:55 Clear 38 3.1 27 -2.6 67 67 SSE 8 13 30.03 1017 10 16.0934 0 0

Powered by AerisWeather